When you browse on this site, cookies collect data to enhance your experience and personalize the content and advertising you see.
Visit our Privacy Policy to learn more. By continuing to use the site, you agree to this use of cookies and data.
  • In Spain
  • List of Countries
  • For 7 days
  • Water Temperature
  • Weather Map
  • Weather Widgets
  • user-avatar
    Login

    Hourly Weather Yulara

    Today, 10 April, Friday

    Time Temperature Precipitation Wind Pressure Humidity
    00:00 +20°C° 0 mm 3 mps 721 mmHg 40%
    01:00 +19°C° 0 mm 3 mps 721 mmHg 42%
    02:00 +19°C° 0 mm 3 mps 720 mmHg 43%
    03:00 +19°C° 0 mm 3 mps 720 mmHg 41%
    04:00 +18°C° 0 mm 3 mps 720 mmHg 43%
    05:00 +18°C° 0 mm 3 mps 720 mmHg 45%
    06:00 +17°C° 0 mm 3 mps 720 mmHg 47%
    07:00 +19°C° 0 mm 3 mps 721 mmHg 42%
    08:00 +21°C° 0 mm 3 mps 722 mmHg 37%
    09:00 +23°C° 0 mm 4 mps 722 mmHg 31%
    10:00 +26°C° 0 mm 4 mps 722 mmHg 28%
    11:00 +27°C° 0 mm 3 mps 721 mmHg 25%
    12:00 +29°C° 0 mm 3 mps 721 mmHg 22%
    13:00 +30°C° 0 mm 3 mps 720 mmHg 20%
    14:00 +30°C° 0 mm 3 mps 720 mmHg 19%
    15:00 +31°C° 0 mm 3 mps 720 mmHg 18%
    16:00 +29°C° 0 mm 3 mps 720 mmHg 19%
    17:00 +28°C° 0 mm 3 mps 719 mmHg 20%
    18:00 +27°C° 0 mm 3 mps 719 mmHg 21%
    19:00 +26°C° 0 mm 3 mps 720 mmHg 23%
    20:00 +25°C° 0 mm 3 mps 720 mmHg 24%
    21:00 +22°C° 0 mm 3 mps 721 mmHg 26%
    22:00 +21°C° 0 mm 3 mps 721 mmHg 28%
    23:00 +20°C° 0 mm 2 mps 720 mmHg 30%

    Tomorrow, 11 April, Saturday

    Time Temperature Precipitation Wind Pressure Humidity
    00:00 +19°C° 0 mm 2 mps 720 mmHg 33%
    01:00 +19°C° 0 mm 2 mps 720 mmHg 33%
    02:00 +19°C° 0 mm 2 mps 720 mmHg 34%
    03:00 +19°C° 0 mm 2 mps 720 mmHg 35%
    04:00 +18°C° 0 mm 2 mps 720 mmHg 36%
    05:00 +18°C° 0 mm 2 mps 720 mmHg 36%
    06:00 +18°C° 0 mm 2 mps 720 mmHg 37%
    07:00 +20°C° 0 mm 2 mps 721 mmHg 33%
    08:00 +23°C° 0 mm 2 mps 721 mmHg 29%
    09:00 +25°C° 0 mm 2 mps 722 mmHg 25%
    10:00 +27°C° 0 mm 2 mps 722 mmHg 21%
    11:00 +29°C° 0 mm 2 mps 721 mmHg 18%
    12:00 +31°C° 0 mm 2 mps 721 mmHg 15%
    13:00 +31°C° 0 mm 2 mps 720 mmHg 13%
    14:00 +33°C° 0 mm 3 mps 720 mmHg 12%
    15:00 +34°C° 0 mm 3 mps 719 mmHg 11%
    16:00 +31°C° 0 mm 3 mps 719 mmHg 12%
    17:00 +29°C° 0 mm 2 mps 719 mmHg 13%
    18:00 +27°C° 0 mm 2 mps 719 mmHg 14%
    19:00 +26°C° 0 mm 2 mps 719 mmHg 16%
    20:00 +25°C° 0 mm 2 mps 720 mmHg 17%
    21:00 +23°C° 0 mm 2 mps 720 mmHg 18%
    22:00 +23°C° 0 mm 2 mps 720 mmHg 19%
    23:00 +21°C° 0 mm 2 mps 720 mmHg 20%

    Day after tomorrow, 12 April, Sunday

    Time Temperature Precipitation Wind Pressure Humidity
    00:00 +21°C° 0 mm 2 mps 720 mmHg 21%
    01:00 +20°C° 0 mm 2 mps 719 mmHg 23%
    02:00 +20°C° 0 mm 1 mps 719 mmHg 25%
    03:00 +19°C° 0 mm 1 mps 718 mmHg 27%
    04:00 +18°C° 0 mm 2 mps 719 mmHg 27%
    05:00 +19°C° 0 mm 2 mps 719 mmHg 28%
    06:00 +19°C° 0 mm 3 mps 719 mmHg 28%
    07:00 +21°C° 0 mm 4 mps 720 mmHg 28%
    08:00 +25°C° 0 mm 4 mps 720 mmHg 29%
    09:00 +27°C° 0 mm 4 mps 721 mmHg 29%
    10:00 +29°C° 0 mm 3 mps 720 mmHg 26%
    11:00 +30°C° 0 mm 2 mps 720 mmHg 22%
    12:00 +32°C° 0 mm 1 mps 720 mmHg 18%
    13:00 +32°C° 0 mm 2 mps 719 mmHg 18%
    14:00 +34°C° 0 mm 2 mps 718 mmHg 18%
    15:00 +35°C° 0 mm 3 mps 718 mmHg 18%
    16:00 +32°C° 0 mm 2 mps 718 mmHg 21%
    17:00 +30°C° 0 mm 2 mps 718 mmHg 23%
    18:00 +29°C° 0 mm 2 mps 718 mmHg 25%
    19:00 +28°C° 0 mm 2 mps 718 mmHg 27%
    20:00 +27°C° 0 mm 3 mps 719 mmHg 28%
    21:00 +26°C° 0 mm 3 mps 719 mmHg 30%
    22:00 +26°C° 0 mm 3 mps 719 mmHg 32%
    23:00 +25°C° 0 mm 4 mps 719 mmHg 34%

    13 April, Monday

    Time Temperature Precipitation Wind Pressure Humidity
    00:00 +25°C° 0 mm 4 mps 719 mmHg 37%
    01:00 +23°C° 0 mm 4 mps 719 mmHg 39%
    02:00 +22°C° 0 mm 4 mps 719 mmHg 41%
    03:00 +21°C° 0 mm 4 mps 718 mmHg 44%
    04:00 +21°C° 0 mm 3 mps 718 mmHg 45%
    05:00 +21°C° 0 mm 3 mps 718 mmHg 46%
    06:00 +20°C° 0 mm 3 mps 718 mmHg 47%
    07:00 +22°C° 0 mm 3 mps 719 mmHg 42%
    08:00 +25°C° 0 mm 3 mps 720 mmHg 38%
    09:00 +27°C° 0 mm 3 mps 720 mmHg 33%
    10:00 +29°C° 0 mm 2 mps 720 mmHg 30%
    11:00 +31°C° 0 mm 2 mps 719 mmHg 27%
    12:00 +32°C° 0 mm 1 mps 719 mmHg 24%
    13:00 +34°C° 0 mm 2 mps 719 mmHg 23%
    14:00 +35°C° 0 mm 2 mps 718 mmHg 21%
    15:00 +36°C° 0 mm 3 mps 717 mmHg 20%
    16:00 +34°C° 0 mm 3 mps 717 mmHg 22%
    17:00 +33°C° 0 mm 3 mps 718 mmHg 24%
    18:00 +31°C° 0 mm 3 mps 718 mmHg 26%
    19:00 +30°C° 0 mm 3 mps 718 mmHg 28%
    20:00 +28°C° 0 mm 3 mps 719 mmHg 30%
    21:00 +27°C° 0 mm 3 mps 719 mmHg 33%
    22:00 +26°C° 0 mm 3 mps 719 mmHg 35%
    23:00 +26°C° 0 mm 3 mps 719 mmHg 37%

    14 April, Tuesday

    Time Temperature Precipitation Wind Pressure Humidity
    00:00 +25°C° 0 mm 3 mps 719 mmHg 39%
    01:00 +23°C° 0 mm 4 mps 719 mmHg 40%
    02:00 +22°C° 0 mm 4 mps 719 mmHg 40%
    03:00 +22°C° 0 mm 4 mps 719 mmHg 41%
    04:00 +21°C° 0 mm 4 mps 719 mmHg 41%
    05:00 +21°C° 0 mm 4 mps 719 mmHg 41%
    06:00 +20°C° 0 mm 4 mps 720 mmHg 41%
    07:00 +22°C° 0 mm 4 mps 720 mmHg 36%
    08:00 +25°C° 0 mm 5 mps 721 mmHg 32%
    09:00 +26°C° 0 mm 5 mps 721 mmHg 27%
    10:00 +28°C° 0 mm 5 mps 721 mmHg 25%
    11:00 +30°C° 0 mm 5 mps 720 mmHg 23%
    12:00 +33°C° 0 mm 4 mps 720 mmHg 21%
    13:00 +34°C° 0 mm 4 mps 720 mmHg 20%
    14:00 +34°C° 0 mm 4 mps 719 mmHg 19%
    15:00 +35°C° 0 mm 4 mps 718 mmHg 18%
    16:00 +34°C° 0 mm 4 mps 719 mmHg 19%
    17:00 +32°C° 0 mm 4 mps 719 mmHg 20%
    18:00 +30°C° 0 mm 4 mps 719 mmHg 20%
    19:00 +28°C° 0 mm 4 mps 719 mmHg 21%
    20:00 +27°C° 0 mm 5 mps 720 mmHg 21%
    21:00 +26°C° 0 mm 5 mps 720 mmHg 22%
    22:00 +25°C° 0 mm 5 mps 720 mmHg 23%
    23:00 +23°C° 0 mm 5 mps 720 mmHg 24%

    15 April, Wednesday

    Time Temperature Precipitation Wind Pressure Humidity
    00:00 +22°C° 0 mm 4 mps 720 mmHg 25%
    01:00 +21°C° 0 mm 4 mps 720 mmHg 26%
    02:00 +21°C° 0 mm 4 mps 719 mmHg 27%
    03:00 +20°C° 0 mm 4 mps 719 mmHg 28%
    04:00 +19°C° 0 mm 4 mps 719 mmHg 28%
    05:00 +19°C° 0 mm 3 mps 719 mmHg 29%
    06:00 +19°C° 0 mm 3 mps 719 mmHg 30%
    07:00 +21°C° 0 mm 3 mps 720 mmHg 28%
    08:00 +23°C° 0 mm 4 mps 720 mmHg 25%
    09:00 +26°C° 0 mm 4 mps 721 mmHg 22%
    10:00 +28°C° 0 mm 3 mps 720 mmHg 20%
    11:00 +30°C° 0 mm 3 mps 720 mmHg 18%
    12:00 +32°C° 0 mm 2 mps 720 mmHg 16%
    13:00 +34°C° 0 mm 2 mps 719 mmHg 15%
    14:00 +35°C° 0 mm 2 mps 718 mmHg 15%
    15:00 +35°C° 0 mm 1 mps 718 mmHg 15%
    16:00 +33°C° 0 mm 1 mps 718 mmHg 18%
    17:00 +31°C° 0 mm 1 mps 717 mmHg 22%
    18:00 +27°C° 0 mm 0 mps 717 mmHg 26%
    19:00 +29°C° 0 mm 1 mps 718 mmHg 23%
    20:00 +29°C° 0 mm 2 mps 718 mmHg 21%
    21:00 +30°C° 0 mm 3 mps 718 mmHg 19%
    22:00 +29°C° 0 mm 3 mps 718 mmHg 19%
    23:00 +28°C° 0 mm 3 mps 718 mmHg 18%
    Show more